Regional Weather Roundup
Issued by NWS

Home | Current Version | Previous Version | Text Only | Print | Product List | Glossary Off
Versions: 1 2 3 4 5 6 7 8 9 10 11 12 13 14 15 16 17 18 19 20 21 22 23 24 25 26 27 28 29 30 31 32 33 34 35 36 37 38 39 40 41 42 43 44 45 46 47 48 49 50

000
ASUS43 KOAX 150410
RWRNE

WEATHER ROUNDUP FOR NEBRASKA
NATIONAL WEATHER SERVICE OMAHA NE
1100 PM CDT SUN SEP 14 2014

NOTES: SATELLITE DATA IS BEING USED TO AUGMENT CLOUD COVER ABOVE
       12000 FEET.
       "FAIR" INDICATES FEW OR NO CLOUDS BELOW 12,000 FEET WITH NO
       SIGNIFICANT WEATHER AND/OR OBSTRUCTIONS TO VISIBILITY.

  * THESE STATIONS DO NOT REPORT WEATHER SUCH AS RAIN...SNOW OR FOG.

NEZ001>004-019>022-054>056-150500-
NEBRASKA PANHANDLE

CITY           SKY/WX    TMP DP  RH WIND       PRES   REMARKS
SCOTTSBLUFF    CLEAR     52  44  74 N13G24    30.13R
ALLIANCE       MOCLDY    49  43  80 N13       30.12R
CHADRON        PTCLDY    46  41  82 NE8       30.18
KIMBALL        CLEAR     55  50  85 N10       30.11R
SIDNEY         PTCLDY    58  50  75 N12       30.09R
$$

NEZ057>060-069>072-079>082-150500-
SOUTHWEST NEBRASKA

CITY           SKY/WX    TMP DP  RH WIND       PRES   REMARKS
NORTH PLATTE   PTCLDY    56  53  90 E8        30.04R
IMPERIAL       MOCLDY    61  57  87 NE10      30.01R
LEXINGTON      PTCLDY    59  54  82 E10       30.04R
MCCOOK         PTCLDY    62  57  83 NE10      29.99R
OGALLALA       MOCLDY    63  58  83 SE8       30.03S
$$

NEZ005>010-023>029-035>040-094-150500-
NORTH CENTRAL NEBRASKA

CITY           SKY/WX    TMP DP  RH WIND       PRES   REMARKS
VALENTINE      CLOUDY    52  42  69 NE13      30.12S
AINSWORTH      CLOUDY    50  45  80 N9        30.11R
BROKEN BOW     MOCLDY    60  53  77 SE8       30.05F
O`NEILL        MOCLDY    57  54  89 NE7       30.09S
ORD            MOCLDY    61  53  75 SE12      30.04F
THEDFORD       MOCLDY    56  52  84 NE7       30.08R
$$

NEZ041-046>049-061>064-073>077-083>087-150500-
SOUTH CENTRAL NEBRASKA

CITY           SKY/WX    TMP DP  RH WIND       PRES   REMARKS
GRAND ISLAND   CLOUDY    62  54  74 E7        30.07S
AURORA         CLOUDY    62  55  77 E5        30.06F
HASTINGS       MOCLDY    61  52  72 E9        30.04S
HEBRON         CLOUDY    62  54  74 E8        30.02S
HOLDREGE       MOCLDY    57  52  82 NE12      30.02S
KEARNEY *      MOCLDY    57  52  82 NE10      30.06S
YORK           CLOUDY    63  55  77 E7        30.07S
$$

NEZ011>018-030>034-042>045-150500-
NORTHEAST NEBRASKA

CITY           SKY/WX    TMP DP  RH WIND       PRES   REMARKS
NORFOLK        CLOUDY    60  54  80 E5        30.08S
ALBION         MOCLDY    59  54  82 E3        30.08R
BLAIR          CLOUDY    62  54  73 CALM      30.09S
COLUMBUS *     CLOUDY    61  55  82 E3        30.09S
FREMONT        CLOUDY    64  52  66 E3        30.09S
TEKAMAH        CLOUDY    61  56  83 CALM      30.10R
WAYNE          CLOUDY    59  53  79 SE8       30.09S
$$

NEZ050>053-065>068-078-088>093-150500-
SOUTHEAST NEBRASKA

CITY           SKY/WX    TMP DP  RH WIND       PRES   REMARKS
LINCOLN        CLOUDY    66  54  65 SE9       30.08S
OMAHA EPPLEY   CLOUDY    64  52  64 SE5       30.09S
BEATRICE       CLOUDY    64  55  73 NE7       30.05S
FALLS CITY     CLOUDY    64  58  80 E8        30.06S
NEBRASKA CITY  CLOUDY    64  50  60 SE3       30.09R
PLATTSMOUTH    CLOUDY    62  55  77 CALM      30.08F
$$

NEZ044-045-051>053-067-150500-
OMAHA AREA

CITY           SKY/WX    TMP DP  RH WIND       PRES   REMARKS
OMAHA EPPLEY   CLOUDY    64  52  64 SE5       30.09S
BLAIR          CLOUDY    62  54  73 CALM      30.09S
FREMONT        CLOUDY    64  52  66 E3        30.09S
OFFUTT AFB     CLOUDY    63  59  87 E6        30.08F
PLATTSMOUTH    CLOUDY    62  55  77 CALM      30.08F
WAHOO          CLOUDY    62  54  74 CALM      30.09R
$$



USA.gov is the U.S. government's official web portal to all federal, state and local government web resources and services.